Regional Weather Roundup
Issued by NWS

Home | Current Version | Previous Version | Text Only | Print | Product List | Glossary Off
Versions: 1 2 3 4 5 6 7 8 9 10 11 12 13 14 15 16 17 18 19 20 21 22 23 24 25 26 27 28 29 30 31 32 33 34 35 36 37 38 39 40 41 42 43 44 45 46 47 48 49 50

000
ASUS43 KMKX 262000
RWRWI

WISCONSIN REGIONAL WEATHER ROUNDUP
NATIONAL WEATHER SERVICE MILWAUKEE/SULLIVAN WI
300 PM CDT FRI MAY 26 2017

NOTE: "FAIR" INDICATES FEW OR NO CLOUDS BELOW 12,000 FEET WITH NO
SIGNIFICANT WEATHER AND/OR OBSTRUCTIONS TO VISIBILITY.

WIZ001-002-006>008-014>016-023>028-262100-
NORTHWEST WISCONSIN

CITY           SKY/WX    TMP DP  RH WIND       PRES   REMARKS
SUPERIOR ARPT  NOT AVBL
ASHLAND        CLOUDY    58  51  78 CALM      29.74F
HAYWARD        CLOUDY    71  53  52 S14       29.75F
SIREN          MOSUNNY   74  55  52 S10G17    29.73S
CUMBERLAND     CLOUDY    68  55  64 S12       29.76S
RICE LAKE      CLOUDY    70  52  52 S16       29.77F
CHETEK         CLOUDY    72  56  57 S7        29.77S
LADYSMITH      CLOUDY    70  54  57 S9        29.79F
EAU CLAIRE     NOT AVBL
MENOMONIE      CLOUDY    73  56  55 SW10      29.77S
NEW RICHMOND   MOSUNNY   73  56  56 S9        29.75S
OSCEOLA        SUNNY     75  58  55 S13       29.76S
$$

WIZ003>005-009-010-017-018-262100-
NORTH CENTRAL WISCONSIN

CITY           SKY/WX    TMP DP  RH WIND       PRES   REMARKS
MANITOWISH WTR CLOUDY    68  54  60 S13       29.79F
ARBOR VITAE    LGT RAIN  66  56  71 S6        29.80S
WOODRUFF       LGT RAIN  66  56  71 S6        29.80S
RHINELANDER    CLOUDY    69  50  50 S10       29.82F
EAGLE RIVER    CLOUDY    66  51  58 S7        29.81F
LAND O LAKES   CLOUDY    66  52  61 S5        29.83S
PHILLIPS       CLOUDY    67  56  67 S7        29.79S
TOMAHAWK       CLOUDY    67  55  63 S3        29.82S
MEDFORD        CLOUDY    68  56  64 S12       29.81S
MERRILL        CLOUDY    70  55  58 S7G17     29.82S
$$

WIZ029-030-035-036-043>047-262100-
CENTRAL WISCONSIN

CITY           SKY/WX    TMP DP  RH WIND       PRES   REMARKS
WAUSAU         CLOUDY    70  55  59 S9        29.80F
MOSINEE        MOSUNNY   72  55  56 S9        29.83S
MARSHFIELD     CLOUDY    72  54  53 S15       29.79F
STEVENS POINT  CLOUDY    69  54  57 SE10      29.82F
WAUPACA        CLOUDY    72  57  59 SE5       29.83S
WAUTOMA        CLOUDY    71  56  58 S8        29.82F
WISC RAPIDS    CLOUDY    72  54  53 S10       29.82S
CAMP DOUGLAS   NOT AVBL
$$

WIZ011>013-019>022-031-037>040-048>050-262100-
NORTHEAST WISCONSIN

CITY           SKY/WX    TMP DP  RH WIND       PRES   REMARKS
ANTIGO         CLOUDY    67  56  68 S8        29.83S
SHAWANO        CLOUDY    73  55  51 SW6       29.83S
OCONTO         CLOUDY    67  55  63 SE9       29.83S
STURGEON BAY   MOSUNNY   63  52  67 SE7       29.86S
GREEN BAY      CLOUDY    69  60  73 SE12      29.83S
MANITOWOC      NOT AVBL
APPLETON       PTSUNNY   70  52  52 SE8       29.83R
CLINTONVILLE   CLOUDY    70  52  52 SW10      29.83S
OSHKOSH        CLOUDY    69  56  62 E9        29.83R
$$

WIZ032>034-041-042-053>061-262100-
SOUTHWEST WISCONSIN

CITY           SKY/WX    TMP DP  RH WIND       PRES   REMARKS
LA CROSSE      CLOUDY    72  56  57 S12       29.79F
SPARTA         CLOUDY    68  55  64 S10       29.82S
VIROQUA        CLOUDY    65  54  65 N12       29.82F
BOSCOBEL       CLOUDY    65  57  75 VRB3      29.83S
PRAIRIE DU CHI CLOUDY    63  56  76 SE5       29.81F
PLATTEVILLE    PTSUNNY   61  61  99 NE6       29.83R
$$

WIZ056-057-062-063-064-067-068-262100-
SOUTH CENTRAL WISCONSIN

CITY           SKY/WX    TMP DP  RH WIND       PRES   REMARKS
REEDSBURG      CLOUDY    64  55  70 S6        29.83S
BARABOO/DELLS  CLOUDY    66  54  65 S8        29.83S
LONE ROCK      NOT AVBL
MINERAL POINT  LGT RAIN  59  57  94 E3        29.83S
MADISON        LGT RAIN  64  58  80 SE3       29.82F
MIDDLETON      CLOUDY    64  60  87 CALM      29.84F
WATERTOWN      CLOUDY    65  58  76 SE8       29.84R
MONROE         RAIN      61  59  94 CALM      29.83F
JANESVILLE     LGT RAIN  68  57  68 SE9       29.83
$$

WIZ051-052-058>065-066-070>072-262100-
SOUTHEAST WISCONSIN

CITY           SKY/WX    TMP DP  RH WIND       PRES   REMARKS
MILWAUKEE      CLOUDY    61  55  81 E5        29.86S
WAUKESHA       MOSUNNY   63  52  67 SE9       29.86S
MILWAUKEE/TIMM PTSUNNY   61  50  67 S5        29.87R
RACINE         CLOUDY    59  51  75 E6        29.87S
KENOSHA        CLOUDY    61  52  72 E6        29.86S
FOND DU LAC    CLOUDY    70  53  54 SE8       29.84R
SHEBOYGAN      CLOUDY    62  55  77 S5        29.86R
WEST BEND      MOSUNNY   63  54  72 S9        29.86R
JUNEAU         CLOUDY    67  55  65 SE7       29.85R
$$

LSZ147-162-262100-
LAKE SUPERIOR

STATION/POSITION TIME  TEMP    WIND        PRES    WAVE
                       AIR SEA DIR/SP/G            HT/PER
                 (UTC) (F)     (DEG/KT/KT) (MB)    (FT/S)
W MID LAKE BUOY  1850   43 37   40/  8/ 10 1008.7S   0
DEVILS ISLAND    1900   50     110/ 10/ 11 1007.3F
PORT WING        1940   43      20/ 13/ 16 1006.4F
SAXON HARBOR     1940   51      CALM  /  4 1007.1S
$$

LMZ867-665-643>646-262100-
LAKE MICHIGAN

STATION/POSITION TIME  TEMP    WIND        PRES    WAVE
                       AIR SEA DIR/SP/G            HT/PER
                 (UTC) (F)     (DEG/KT/KT) (MB)    (FT/S)
CHAMBERS ISLAND  1940   60     350/  4/  5 1010.2S
N MID LAKE BUOY  1850   42 42  210/  6/  6 1012.2R   0
NORTHPORT PIER   1940   60     150/  6/  9 1010.8S
KEWAUNEE LAKESHO 1930   48     110/  3/  5 1010.8F
SHEBOYGAN LAKESH 1900   48     160/  4/  5 1011.1R
PORT WASHINGTON  1940   53     180/  4/  6 1012.5S
ATWATER BUOY     1809   46      70/  2/  2 1011.5R
MILWAUKEE LAKESH 1930   47      50/  1/  1   N/A
S MID LAKE BUOY  1850   49 47     CALM     1011.6R   1
KENOSHA   LAKESH 1900   51        CALM     1011.2
$$

TC  - TEMPERATURE IN CELSIUS
VSB - VISIBILITY IN STATUTE MILES
WCI - WIND CHILL INDEX
HX  - HEAT INDEX





USA.gov is the U.S. government's official web portal to all federal, state and local government web resources and services.